Presure
181 160 272 279 252 278 273 287 266 272 274 257 255 250 276 259 260 232 249 245 237 228 149 224 216 215 214 211 211 213 209 219 205 196 215 212 205 237 224 235 284 300 271 281
138 278 277 281 279 273 271 291 222 277 264 257 258 246 260 253 265 246 244 241 234 226 216 221 213 219 212 213 216 213 218 223 221 215 212 215 218 218 233 236 253 279 278 301
236 228 284 275 278 209 285 301 294 262 267 266 259 261 260 253 253 242 245 238 233 219 214 223 206 215 208 221 211 209 221 224 217 213 213 214 220 215 232 238 234 251 279 298
208 302 260 290 251 275 282 289 297 277 266 270 266 254 259 267 250 210 236 243 213 223 216 222 212 208 217 216 209 222 222 216 214 206 210 211 218 209 208 233 243 244 258 278
259 294 171 223 279 147 142 299 302 291 280 284 277 264 259 270 255 244 236 240 223 223 225 166 209 209 212 209 202 218 222 212 211 208 213 208 205 205 226 218 239 244 252 260
268 292 247 290 252 281 292 300 285 289 315 265 284 267 257 255 254 256 238 240 229 224 218 218 219 209 216 209 202 196 218 210 210 206 204 208 209 203 223 213 223 231 248 258
230 277 254 241 282 243 270 288 282 306 330 318 259 265 256 252 267 258 248 231 228 185 229 215 221 210 216 204 200 198 194 213 209 212 204 205 206 206 212 216 214 231 235 248
254 291 280 244 245 279 291 303 282 293 328 327 254 277 272 253 261 255 247 238 213 234 206 221 219 215 216 209 204 205 198 216 210 209 205 204 207 201 210 206 204 220 220 239
239 263 281 299 252 144 234 306 245 308 344 322 281 263 264 259 251 263 250 236 197 225 228 223 221 213 214 211 208 202 208 219 209 211 210 201 212 205 212 189 212 217 218 241
245 229 240 271 264 264 261 261 305 302 320 296 267 279 271 268 250 255 255 231 235 224 231 219 228 217 212 204 206 211 210 216 215 214 212 210 206 203 210 205 212 204 214 218
250 248 246 201 221 255 266 258 289 265 316 315 252 267 287 269 257 255 262 251 225 225 235 229 227 219 213 210 206 207 208 209 211 219 212 214 207 201 202 201 217 220 215 219
268 238 271 313 260 331 255 267 257 326 296 310 284 226 242 294 265 254 260 246 249 232 137 234 216 224 218 208 203 205 204 205 205 228 215 209 210 193 202 204 205 219 214 215
254 297 303 315 276 272 299 253 245 250 326 235 284 259 218 241 277 263 263 260 259 249 228 226 222 219 217 212 205 211 207 207 207 215 228 214 211 205 201 201 203 223 215 213
237 227 333 314 304 281 247 254 249 237 254 305 286 250 256 239 241 285 259 259 257 261 253 231 234 225 217 222 210 211 211 211 207 212 224 213 213 211 219 223 203 216 223 205
216 301 323 311 311 298 305 266 302 265 269 257 310 270 226 250 244 285 285 271 255 261 249 250 232 230 226 219 222 216 212 214 214 206 213 209 203 204 215 227 217 213 218 221
244 307 309 188 304 301 297 297 276 292 257 269 244 239 267 269 257 247 287 275 261 258 260 252 244 227 231 223 223 211 212 212 210 210 211 210 213 209 212 221 201 207 212 215
240 310 302 297 249 302 300 294 242 279 276 275 273 240 273 236 226 268 251 273 266 263 261 248 248 248 224 230 231 227 220 216 212 214 212 210 205 207 212 204 203 204 209 203
246 271 314 314 302 300 298 302 227 294 297 276 276 253 244 263 245 238 234 247 285 265 261 251 251 246 248 238 226 226 229 219 219 218 219 213 209 209 215 210 202 222 204 219
243 261 305 315 318 293 303 300 301 285 290 290 283 267 260 261 252 233 243 231 263 284 262 260 249 246 245 240 231 239 221 221 228 228 221 212 212 213 203 203 213 217 221 220
252 279 252 311 321 320 310 293 299 299 299 300 294 295 306 268 246 238 258 248 238 245 277 261 256 251 245 245 246 241 237 240 241 223 225 221 220 225 216 208 204 219 209 218
287 307 322 275 334 326 317 316 323 357 339 315 301 309 311 308 279 256 246 236 255 238 241 289 261 257 257 248 246 247 244 231 227 231 236 236 233 232 230 201 219 218 217 229
251 241 291 296 307 325 342 398 391 394 399 410 330 399 321 324 289 286 255 245 260 247 232 248 293 285 268 262 249 244 244 243 234 231 229 220 227 235 233 238 233 225 218 231
253 260 253 303 344 351 383 374 350 348 368 382 402 391 403 321 326 307 288 262 256 257 239 249 236 295 284 277 267 260 248 245 243 237 240 223 220 235 225 238 227 233 230 220
268 302 305 315 353 380 382 358 352 308 325 340 369 390 380 384 322 322 312 266 260 253 247 246 253 233 262 292 274 260 248 247 249 246 245 245 240 216 237 238 239 221 231 228
241 276 325 352 383 380 357 365 376 375 379 338 324 347 380 387 399 349 338 296 263 246 263 252 248 244 237 279 287 272 260 256 249 247 246 243 243 245 234 243 244 214 216 245
294 317 362 367 366 360 395 404 417 419 405 381 376 324 348 374 387 402 356 327 275 263 260 269 245 242 235 256 249 293 274 264 251 250 247 247 237 241 234 246 245 244 222 248
305 352 365 354 389 423 450 483 551 542 560 548 392 389 329 359 382 388 313 343 286 280 261 258 250 256 243 241 258 265 304 275 261 256 250 247 241 245 249 250 257 228 234 241
Wind_Speed
57 50 69 63 65 69 48 30 39 33 25 35 37 34 27 22 20 27 19 19 18 18 28 25 27 28 31 34 39 42 42 47 42 43 53 57 52 70 66 70 81 80 72 74
51 62 64 58 54 61 58 41 47 33 37 37 37 36 26 22 21 22 22 18 16 20 23 25 26 30 30 35 38 40 44 43 46 45 46 52 62 62 68 70 73 80 78 86
64 63 55 55 50 56 57 44 32 41 39 36 38 34 30 22 21 21 21 19 17 21 23 24 24 29 28 36 36 38 45 43 45 44 46 50 55 61 64 67 66 72 82 87
62 46 54 44 56 52 53 47 34 36 38 40 37 36 32 23 22 33 20 20 26 20 24 25 25 27 32 33 34 40 42 43 44 42 48 51 59 56 59 67 66 66 73 81
62 41 48 58 48 63 57 47 43 34 35 39 39 36 34 29 24 25 24 21 23 21 23 28 27 26 29 31 31 38 37 41 44 44 51 52 50 50 64 62 65 66 67 72
59 46 57 47 54 48 48 42 44 38 36 36 37 34 32 28 25 27 25 24 24 24 24 26 28 25 27 28 28 29 33 40 43 44 45 51 54 50 63 58 62 63 66 70
58 54 61 59 46 52 51 44 45 42 37 34 33 33 31 34 29 26 25 26 25 25 27 26 27 26 28 27 27 28 30 36 42 45 43 46 47 49 56 56 56 62 63 64
64 51 52 61 59 44 45 41 47 42 39 31 36 34 33 32 30 24 25 29 26 26 25 25 27 28 30 28 29 33 31 34 39 40 43 44 49 43 53 48 45 57 56 60
59 62 52 47 58 52 53 44 43 42 39 29 31 31 32 30 32 29 26 29 29 26 27 26 27 28 29 30 34 35 37 35 36 40 41 39 47 43 51 42 55 55 55 59
63 59 57 56 56 52 53 53 37 37 32 29 32 32 35 33 32 33 28 29 31 26 29 26 28 31 29 23 27 34 36 39 36 40 41 43 43 40 46 48 51 40 53 56
66 63 60 54 52 56 50 53 43 38 32 29 35 34 39 38 36 37 35 33 31 30 32 31 29 30 33 31 29 31 32 36 37 39 38 42 40 40 42 39 55 55 53 55
74 65 66 52 60 45 53 49 50 35 35 30 33 38 37 41 41 38 43 32 36 33 37 33 28 29 33 30 33 33 34 34 35 38 38 37 40 29 39 42 46 55 52 51
74 65 60 50 54 51 44 51 48 47 33 50 37 37 42 39 43 43 45 45 38 35 33 32 31 28 33 33 37 38 37 36 37 40 41 39 39 40 38 43 45 56 53 48
69 60 57 53 48 50 51 50 50 48 44 33 40 42 39 40 40 50 43 44 42 40 38 35 35 34 34 36 35 37 39 40 38 40 43 41 40 44 49 50 46 54 54 43
76 63 55 56 53 50 46 45 42 44 41 41 35 45 50 40 39 43 49 47 43 44 40 40 38 38 38 38 39 40 39 41 43 35 40 39 37 41 49 47 49 51 53 56
90 76 65 70 54 55 50 46 45 42 43 38 50 51 49 43 41 41 47 48 47 46 45 44 42 38 40 42 42 38 39 41 40 40 39 40 42 41 45 47 40 46 51 51
93 80 72 68 59 58 57 53 51 43 42 41 39 51 51 48 45 42 42 49 47 49 48 45 42 44 42 45 44 44 44 44 41 43 42 42 36 40 44 40 41 41 47 39
97 81 77 71 66 64 61 60 57 54 52 41 40 50 51 50 48 43 39 41 56 51 50 46 48 46 46 48 45 45 47 46 47 46 45 43 41 43 48 43 42 54 42 57
94 94 82 78 73 68 67 64 61 61 62 52 44 50 46 50 53 49 42 38 44 55 51 52 47 51 52 48 49 51 47 47 51 52 47 43 42 45 39 41 49 53 55 57
95 90 92 78 75 72 70 67 66 65 63 64 60 54 49 47 55 54 45 43 36 41 58 51 54 57 54 55 56 53 50 50 51 50 50 48 50 53 47 45 46 53 48 57
80 84 92 92 79 72 72 73 71 66 63 59 61 60 56 53 51 55 52 46 40 37 44 58 58 58 60 59 57 58 58 51 50 52 54 55 55 55 55 47 53 55 55 62
103 99 86 93 86 84 82 70 64 60 55 51 55 51 57 57 50 53 54 50 43 39 41 48 58 63 60 64 62 59 60 60 53 53 53 50 52 55 55 55 56 57 57 60
100 99 99 96 97 90 80 71 63 62 57 51 48 50 52 56 56 54 55 50 43 42 44 49 42 57 60 61 64 68 64 64 61 61 62 53 53 57 53 57 53 57 59 59
93 105 114 112 100 87 82 75 68 64 61 56 49 49 51 54 55 55 55 48 46 45 49 47 45 43 49 59 62 63 64 68 66 64 64 64 62 55 60 58 58 57 64 61
107 101 116 109 96 85 82 79 71 65 60 59 52 47 50 52 55 57 56 50 49 52 54 45 42 43 46 53 62 64 66 67 65 66 64 63 64 67 59 67 63 61 63 69
109 119 106 102 97 91 82 75 68 63 60 58 56 48 45 49 53 53 58 52 53 57 46 42 42 44 49 52 52 66 68 68 65 67 66 67 60 64 61 69 65 70 63 71
110 112 107 108 98 87 76 73 44 41 39 42 57 56 43 48 47 40 45 57 56 57 40 39 43 44 50 50 51 52 64 67 68 68 68 68 65 68 75 73 78 62 64 67
Wind_Direction
301 300 312 315 320 317 329 311 316 308 299 309 312 314 308 305 297 307 294 300 315 312 328 315 317 320 321 324 323 327 333 335 344 344 350 350 351 355 357 360 17 13 8 12
321 307 310 314 317 315 322 316 309 294 309 306 305 315 316 306 295 303 300 308 312 306 313 313 319 321 324 322 322 327 330 335 337 342 350 354 352 358 357 358 7 17 13 15
321 322 307 315 314 313 321 325 288 310 301 300 299 303 304 303 294 293 295 310 304 306 312 312 311 321 322 321 324 330 330 333 338 343 352 355 357 356 358 359 3 9 19 21
323 306 317 315 315 317 319 321 314 292 302 293 287 303 296 293 283 304 306 301 302 302 310 308 308 315 321 321 324 327 329 333 337 344 351 354 355 1 358 359 3 7 13 18
320 313 304 322 314 310 318 318 317 310 291 283 277 290 288 292 277 289 303 294 298 299 298 315 305 314 320 321 325 329 326 332 336 342 348 355 356 356 355 0 1 6 10 14
321 312 320 313 315 315 318 316 316 312 305 301 273 285 289 296 286 273 288 290 292 294 295 298 300 308 314 314 323 329 326 331 333 338 348 349 351 354 354 360 2 3 10 13
317 318 320 320 315 320 311 312 314 315 312 278 292 281 281 287 284 275 278 291 297 302 288 294 298 303 308 309 316 320 328 326 330 331 344 348 351 352 353 357 1 1 5 9
328 314 314 321 319 315 314 314 311 314 314 284 300 265 261 285 289 273 275 283 293 286 293 293 296 300 305 307 313 320 325 324 323 331 338 342 347 352 350 354 356 2 5 4
327 325 316 310 317 327 320 315 312 317 319 284 286 278 277 271 282 276 268 280 288 291 284 291 290 295 301 304 313 314 319 320 324 325 329 336 336 348 345 341 352 357 4 4
328 327 328 315 316 311 308 310 310 311 313 295 293 271 270 261 284 275 261 278 277 289 283 287 285 290 293 298 305 306 317 318 323 319 323 327 335 343 338 348 347 353 1 2
326 327 327 323 308 311 304 307 308 311 307 291 298 289 259 264 271 276 268 259 279 280 283 280 283 286 291 298 301 309 316 316 322 312 319 320 329 339 342 344 342 347 357 359
326 326 326 314 319 308 305 299 305 305 299 288 285 304 298 260 261 275 269 271 258 271 303 279 278 281 285 293 298 305 309 312 317 310 313 321 324 336 340 343 346 341 351 357
329 327 315 314 309 306 309 301 303 301 294 299 284 288 301 296 255 265 265 270 267 263 270 272 273 277 279 285 294 295 301 305 311 316 307 316 321 329 333 336 341 337 344 351
330 327 323 318 312 302 309 298 297 301 295 287 284 289 283 292 293 254 269 268 270 266 265 267 267 271 277 280 283 290 295 300 304 311 312 316 320 324 324 325 338 335 338 345
321 331 325 320 319 312 314 296 309 293 288 288 275 282 292 286 288 265 256 260 271 267 267 266 266 269 271 276 279 282 288 292 297 304 311 313 320 322 325 323 327 334 338 340
328 331 328 311 317 314 311 311 300 305 284 281 282 283 277 278 281 285 256 257 265 269 266 267 267 269 267 271 276 279 283 287 293 299 304 307 310 316 321 323 327 333 335 338
327 332 327 322 313 313 310 306 308 293 290 285 278 276 273 283 285 273 281 260 267 269 266 270 269 268 270 270 273 275 278 282 287 292 297 302 307 311 315 317 320 327 329 330
324 323 330 324 316 313 309 306 302 297 292 281 279 269 270 273 276 279 281 281 257 266 266 270 271 272 270 267 273 274 275 280 283 285 288 293 300 304 310 312 313 321 324 324
324 325 326 324 318 312 307 303 299 295 291 286 277 266 265 267 273 277 275 280 272 257 264 266 271 272 272 269 270 272 276 280 281 285 288 291 294 299 300 305 312 316 319 320
316 323 318 323 317 310 303 298 296 292 290 288 287 280 278 263 268 274 268 271 277 279 255 266 267 268 271 272 274 274 274 277 280 283 287 290 294 298 299 301 304 310 315 316
318 329 326 319 317 311 303 301 298 295 288 283 281 279 276 273 262 265 269 274 270 274 277 253 261 265 265 269 273 275 277 278 281 284 288 290 292 296 299 302 304 307 309 313
314 316 321 317 314 312 311 307 303 301 298 293 276 272 268 264 263 261 266 272 265 268 274 272 256 257 264 264 269 274 276 278 280 283 287 291 295 297 300 304 304 304 306 311
315 308 312 322 319 316 313 307 302 299 296 291 285 272 267 262 259 259 260 264 265 264 267 270 277 257 259 260 262 265 272 276 279 281 284 288 293 295 296 301 299 305 305 307
307 325 324 320 316 314 310 306 299 294 291 288 282 275 266 262 259 256 255 264 262 259 262 268 271 278 275 257 259 263 269 273 277 281 284 287 290 292 297 301 304 297 306 305
312 316 320 317 313 313 309 304 300 294 288 282 279 275 269 265 261 252 252 253 256 260 256 265 270 275 279 269 261 263 267 271 278 281 285 288 291 293 295 300 302 297 301 308
321 319 315 313 313 311 308 304 299 291 282 276 271 272 268 265 262 259 247 249 249 254 257 258 270 272 276 275 279 261 264 268 277 280 284 287 292 294 297 299 303 305 301 308
318 316 314 316 313 311 309 304 296 286 275 259 262 260 264 262 261 264 247 246 245 249 256 256 262 265 272 280 279 282 265 264 271 276 283 287 291 294 296 300 302 297 304 307